Location: Nairn
(57.5833°N, 3.8667°W)
Time: 22:09:44
(UTC+00:00)

S-56A Canister/Altair - Pass Details

Date: 03 October 2022
Orbit: 638 x 2494 km, 38.9° (Epoch: 05 December)

Event Time Altitude Azimuth Distance (km) Brightness Sun altitude
Exits shadow 01:37:38 11° 129° (SE) 3,324 10.6 -33.3°
Drops below altitude 10° 01:38:00 10° 126° (SE) 3,369 10.7 -33.3°
Sets 01:41:37 0° 108° (ESE) 4,025 11.3 -33.0°
